sat.trackr.live / text

‹ back to catalog

STARLINK-36070

NORAD 66864 · 2025-281S

PAYLOAD ACTIVE UNKNOWN

§ Identity

Operator
Country
US
Launch date
2025-12-02
Launch site
AFETR
Launch vehicle
Mass (kg)
RCS (m²)

Purposes: comms

External: N2YO · Heavens-Above · Gunter

§ Orbital elements

Epoch: 2026-05-24T17:46:40.869984Z

Period
94.27 min
Inclination
43.0022°
Eccentricity
0.0001181
Mean motion
15.27589746 rev/d
Perigee alt
482.2 km
Apogee alt
483.8 km
Semi-major
6,861.2 km
B*
4.9793e-4
RAAN
274.2319°
Arg perigee
274.2451°
Mean anomaly
85.8266°
Rev number
2,781

§ Raw data

STARLINK-360701 66864U 25281S   26144.74075081  .00013469  00000+0  49793-3 0  99942 66864  43.0022 274.2319 0001181 274.2451  85.8266 15.27589746 27814

JSON: /api/v1/satellites/66864 · /tle

For live sub-satellite position, see the globe view (requires WebGL).

§ Visibility from observer

Set your observer location to see the next 7 days of passes ≥ 10°. The values pass through the URL so the page stays shareable.

No JS? Fill the form by hand. The geolocation button needs JavaScript.